Regional Weather Roundup
Issued by NWS

Home | Current Version | Previous Version | Text Only | Print | Product List | Glossary Off
Versions: 1 2 3 4 5 6 7 8 9 10 11 12 13 14 15 16 17 18 19 20 21 22 23 24 25 26 27 28 29 30 31 32 33 34 35 36 37 38 39 40 41 42 43 44 45 46 47 48 49 50

000
ASUS44 KMEG 281310
RWRTN
TENNESSEE HOURLY STATE WEATHER ROUNDUP
NATIONAL WEATHER SERVICE MEMPHIS TN
800 AM CDT MON JUL 28 2014

TNZ002-004-019-021-049-052-054-088>092-281400-
WEST TENNESSEE

CITY           SKY/WX    TMP DP  RH WIND       PRES   REMARKS
MEMPHIS INTL   MOSUNNY   77  61  57 NE8       30.07R
NWS MEMPHIS      N/A     76 N/A N/A MISG        N/A
JACKSON        SUNNY     73  61  65 N5        30.06R
DYERSBURG      SUNNY     72  57  60 NW3       30.07R
UNION CITY     SUNNY     70  63  78 N8        30.05R
PARIS          SUNNY     68  59  73 NW5       30.05R
LEXINGTON      SUNNY     72  61  68 N7        30.04R
SAVANNAH       SUNNY     74  65  73 VRB5      30.04S
$$

TNZ008-025-027-028-033-062-065-066-281400-
NORTH MIDDLE TENNESSEE

CITY           SKY/WX    TMP DP  RH WIND       PRES   REMARKS
NASHVILLE      SUNNY     73  61  65 NW8       30.01R
DICKSON        SUNNY     68  61  77 NW7       30.03R
PORTLAND       SUNNY     68  61  77 NW7       30.00R
CLARKSVILLE    SUNNY     72  58  61 NW12      30.01S
LEBANON        SUNNY     70  61  73 W7        29.99R
SMYRNA         SUNNY     72  64  75 NW9       30.02R
MURFREESBORO   SUNNY     71  62  73 NW6       30.00R
COOKEVILLE     SUNNY     72  66  83 NW5       29.99S
CROSSVILLE     LGT RAIN  68  61  78 W8        30.02R
$$

TNZ061-075-076-078-094-096-097-281400-
SOUTH MIDDLE TENNESSEE

CITY           SKY/WX    TMP DP  RH WIND       PRES   REMARKS
LEWISBURG      SUNNY     72  64  75 NW3       30.01R
FAYETTEVILLE   SUNNY     72  63  73 N7        30.02R
TULLAHOMA      SUNNY     70  63  78 N8        30.02S
WINCHESTER     SUNNY     72  64  78 N5        30.01R
MCMINNVILLE    SUNNY     72  66  83 W5        30.01R
COLUMBIA       SUNNY     72  63  73 CALM      30.01S
SHELBYVILLE    SUNNY     73  63  68 N7        30.02R
$$

TNZ017-018-042-046-047-281400-
NORTHEAST TENNESSEE

CITY           SKY/WX    TMP DP  RH WIND       PRES   REMARKS
TRI CITIES     PTSUNNY   69  64  84 W8        29.93R
ELIZABETHTON   CLOUDY    66  64  94 W6          N/A
$$

TNZ012-013-036-069-073-074-281400-
CENTRAL EAST TENNESSEE

CITY           SKY/WX    TMP DP  RH WIND       PRES   REMARKS
KNOXVILLE      MOSUNNY   73  68  84 W10       29.94R
OAK RIDGE      SUNNY     73  66  78 VRB6      29.97R
GATLINBURG     MOSUNNY   73  66  78 W9        29.94R
MORRISTOWN       N/A     72  70  94 NW8       29.96R
$$

TNZ083-085-099-281400-
SOUTHEAST TENNESSEE

CITY           SKY/WX    TMP DP  RH WIND       PRES   REMARKS
CHATTANOOGA    MOSUNNY   77  68  73 W8        29.97R
$$

SKY/WX REPORTED AS FAIR MEANS FEW OR NO CLOUDS BELOW
12 THOUSAND FEET.



USA.gov is the U.S. government's official web portal to all federal, state and local government web resources and services.